Homer, AK

6:15 PM AKDT on April 25, 2018 (GMT -0800)
Homer

Weather History for PAHO - November, 2011

Change the Weather History Date:

Friday, November 11, 2011

  Actual Average Record
Temperature  
Mean Temperature 29 °F -  
Max Temperature 34 °F 36 °F 53 °F (2014)
Min Temperature 24 °F 24 °F 1 °F (1989)
Degree Days  
Heating Degree Days 36    
Moisture  
Dew Point 26 °F    
Average Humidity 84    
Maximum Humidity 100    
Minimum Humidity 59    
Precipitation  
Precipitation 0.15 in - - ()
Sea Level Pressure  
Sea Level Pressure 29.22 in    
Wind  
Wind Speed 4 mph (NE)    
Max Wind Speed 13 mph    
Max Gust Speed -    
Visibility 6 miles    
Events Snow    
Averages and records for this station are not official NWS values.
T = Trace of Precipitation, MM = Missing Value Source: NWS Daily Summary

Daily Weather History Graph

Daily Weather History Graph

Search for Another Location

Airport or City:

Astronomy

Nov. 11, 2011 Rise Set
Actual Time 8:51 AM AKST 4:47 PM AKST
Civil Twilight 8:04 AM AKST 5:34 PM AKST
Nautical Twilight 7:14 AM AKST 6:24 PM AKST
Astronomical Twilight 6:25 AM AKST 7:12 PM AKST
Moon 4:53 PM AKST (11/11) 10:18 AM AKST (11/11)
Length of Visible Light 9h 29m
Length of Day
7h 55m
Full, 99% of the Moon is Illuminated
Nov 11
Full
Nov 18
Last Quarter
Nov 24
New
Dec 2
First Quarter
Dec 10
Full

Hourly Weather History & Observations

Time (AKST) Temp. Windchill Dew Point Humidity Pressure Visibility Wind Dir Wind Speed Gust Speed Precip Events Conditions
12:53 AM 24.1 °F - 17.1 °F 75% 29.85 in 10.0 mi Calm Calm - N/A   Clear
1:53 AM 25.0 °F 19.3 °F 18.0 °F 75% 29.83 in 10.0 mi ENE 4.6 mph - N/A   Clear
3:53 AM 26.1 °F 19.4 °F 19.9 °F 78% 29.79 in 10.0 mi NE 5.8 mph - N/A   Clear
4:53 AM 28.9 °F 23.9 °F 21.9 °F 75% 29.76 in 10.0 mi NNE 4.6 mph - N/A   Clear
5:53 AM 28.9 °F 23.9 °F 21.0 °F 72% 29.72 in 10.0 mi NE 4.6 mph - N/A   Clear
6:53 AM 28.0 °F - 21.0 °F 75% 29.69 in 10.0 mi Calm Calm - N/A   Clear
7:53 AM 27.0 °F - 21.0 °F 78% 29.67 in 10.0 mi Calm Calm - N/A   Mostly Cloudy
8:53 AM 28.9 °F 23.9 °F 21.0 °F 72% 29.62 in 10.0 mi NE 4.6 mph - N/A   Overcast
9:53 AM 28.9 °F 21.9 °F 21.0 °F 72% 29.57 in 10.0 mi ENE 6.9 mph - N/A   Overcast
10:53 AM 30.9 °F 22.2 °F 18.0 °F 59% 29.51 in 10.0 mi East 10.4 mph - N/A   Overcast
11:53 AM 33.1 °F - 21.9 °F 64% 29.47 in 5.0 mi Calm Calm - 0.00 in Snow Light Snow
12:00 PM 32.0 °F - 24.8 °F 75% 29.46 in 3.0 mi Calm Calm - 0.00 in Snow Light Snow
12:14 PM 30.2 °F 25.4 °F 26.6 °F 86% 29.44 in 1.2 mi ENE 4.6 mph - 0.00 in Snow Light Snow
12:53 PM 30.0 °F 22.4 °F 28.0 °F 92% 29.39 in 1.2 mi NE 8.1 mph - 0.01 in Snow Light Snow
1:06 PM 30.2 °F 24.3 °F 28.4 °F 93% 29.38 in 2.5 mi NE 5.8 mph - 0.00 in Snow Light Snow
1:15 PM 30.2 °F 26.7 °F 28.4 °F 93% 29.38 in 4.0 mi NE 3.5 mph - 0.00 in Snow Light Snow
2:53 PM 32.0 °F 24.8 °F 25.0 °F 75% 29.24 in 10.0 mi ENE 8.1 mph - N/A   Overcast
3:53 PM 32.0 °F 23.6 °F 25.0 °F 75% 29.18 in 10.0 mi ENE 10.4 mph - 0.00 in   Overcast
4:53 PM 32.0 °F 22.5 °F 25.0 °F 75% 29.10 in 10.0 mi ENE 12.7 mph - N/A   Overcast
5:53 PM 32.0 °F 23.6 °F 26.1 °F 79% 29.00 in 10.0 mi ENE 10.4 mph - N/A   Overcast
6:53 PM 33.1 °F 24.9 °F 26.1 °F 75% 28.90 in 8.0 mi NE 10.4 mph - 0.00 in Snow Light Snow
7:53 PM 34.0 °F 28.8 °F 26.1 °F 73% 28.80 in 7.0 mi NE 5.8 mph - 0.00 in Snow Light Snow
8:15 PM 32.0 °F 24.8 °F 26.6 °F 80% 28.82 in 1.8 mi NW 8.1 mph - 0.01 in Snow Light Snow
8:36 PM 30.2 °F 21.9 °F 28.4 °F 93% 28.82 in 1.5 mi NNW 9.2 mph - 0.02 in Snow Light Snow
8:53 PM 30.0 °F 21.7 °F 28.9 °F 96% 28.84 in 1.0 mi NNW 9.2 mph - 0.03 in Snow Light Snow
9:27 PM 30.2 °F 22.6 °F 30.2 °F 100% 28.84 in 2.0 mi NNE 8.1 mph - 0.03 in Snow Light Snow
9:53 PM 32.0 °F 26.4 °F 30.0 °F 92% 28.85 in 1.8 mi NNW 5.8 mph - 0.04 in Snow Light Snow
10:01 PM 30.2 °F - 30.2 °F 100% 28.84 in 0.8 mi Calm Calm - 0.00 in Snow Light Snow
10:17 PM 30.2 °F 26.7 °F 30.2 °F 100% 28.85 in 0.8 mi NNE 3.5 mph - 0.03 in Snow Light Snow
10:30 PM 30.2 °F 26.7 °F 30.2 °F 100% 28.86 in 1.0 mi North 3.5 mph - 0.04 in Snow Light Snow
10:51 PM 30.2 °F - 30.2 °F 100% 28.86 in 1.8 mi Calm Calm - 0.06 in Snow Light Snow
10:53 PM 30.9 °F - 30.9 °F 100% 28.87 in 2.0 mi Calm Calm - 0.06 in Snow Light Snow
11:07 PM 30.2 °F - 30.2 °F 100% 28.87 in 3.0 mi Calm Calm - 0.00 in Snow Light Snow
11:44 PM 30.2 °F 26.7 °F 30.2 °F 100% 28.86 in 2.5 mi NNE 3.5 mph - 0.00 in Snow Light Snow
11:53 PM 30.9 °F 24.3 °F 30.9 °F 100% 28.86 in 1.2 mi ENE 6.9 mph - 0.01 in Snow Light Snow